Flag Weather past 2 weeks in Atascadero, California, U.S.A.

Now
52 °F

Clear.


Feels Like: 49 °F
Forecast: 40 / 76 °F
Wind: 9 mph from Southeast

Location: Paso Robles Municipal Airport

Current Time: Nov 25, 2014 at 10:59:13 PM

Latest Report: Nov 25, 2014 at 9:53 PM


Visibility: 10 mi

Pressure: 30.35 "Hg

Humidity: 61%

Dew point: 39 °F

Location of AtascaderoLocation

Historic Weather in Atascadero — Graph

°F

Atascadero temperature yesterday

Maximum temperature yesterday: 65 °F (at 1:53 PM)
Minimum temperature yesterday: 35 °F (at 6:53 AM)
Average temperature yesterday: 50 °F

Past Weeks' High & Low Weather Summary

 TemperatureHumidityPressure
High73 °F (Nov 25, 3:53 PM)97% (Nov 20, 5:53 AM)30.47 "Hg (Nov 20, 5:53 AM)
Low35 °F (Nov 24, 6:53 AM)17% (Nov 17, 12:53 PM)29.86 "Hg (Nov 10, 9:53 PM)
Average55 °F68%30.12 "Hg
* Reported Nov 10 9:53 PM — Nov 25 9:53 PM, Atascadero, Weather by CustomWeather, © 2014

Note: Actual official high and low records may vary slightly from our data, if they occured in-between our weather recording intervals... More about our weather records

Advertising

Atascadero weather history for previous 24 hours

 ConditionsComfort  
Time TempWeatherWind HumidityBarometerVisibility
9:53 PM
Nov 25
52 °FClear.9 mph61%30.35 "Hg10 mi
8:53 PM53 °FClear.5 mph59%30.36 "Hg10 mi
7:53 PM56 °FClear.7 mph55%30.35 "Hg10 mi
6:53 PM59 °FClear.10 mph48%30.35 "Hg10 mi
5:53 PM62 °FClear.9 mph39%30.33 "Hg10 mi
4:53 PM69 °FClear.No wind24%30.32 "Hg10 mi
3:53 PM73 °FSunny.No wind19%30.32 "Hg10 mi
2:53 PM72 °FSunny.No wind25%30.33 "Hg10 mi
1:53 PM69 °FSunny.No wind31%30.34 "Hg10 mi
12:53 PM65 °FSunny.3 mph39%30.37 "Hg10 mi
11:53 AM60 °FSunny.No wind46%30.40 "Hg10 mi
10:53 AM54 °FSunny.No wind57%30.44 "Hg10 mi
9:53 AM50 °FSunny.No wind61%30.46 "Hg10 mi
8:53 AM44 °FSunny.3 mph68%30.47 "Hg10 mi
7:53 AM39 °FSunny.No wind86%30.47 "Hg7 mi
6:53 AM35 °FFog.No wind85%30.45 "Hg6 mi
5:53 AM36 °FClear.No wind85%30.44 "Hg9 mi
4:53 AM37 °FClear.3 mph82%30.42 "Hg10 mi
3:53 AM37 °FClear.No wind89%30.42 "Hg8 mi
2:53 AM39 °FClear.3 mph82%30.42 "Hg10 mi
1:53 AM42 °FClear.No wind76%30.42 "Hg10 mi
12:53 AM42 °FClear.3 mph76%30.41 "Hg10 mi
11:53 PM
Nov 24
47 °FClear.7 mph77%30.41 "Hg10 mi
10:53 PM49 °FClear.6 mph71%30.41 "Hg10 mi
Weather by CustomWeather, © 2014

See weather overviewHow to use our weather pages